64013000, 5301503, 2016-11-29 00:00:00, 13.35760, 109.26660,   0,  10,   1, -5.00, 1014.20, 15.00, 1,  19, 255, 0.000
64013000, 5301503, 2016-11-29 01:00:00, 13.35760, 109.26660,   0,  11,   1, -5.00, 1015.00, 15.00, 0,   9, 255, 0.000
64013000, 5301503, 2016-11-29 02:00:00, 13.35760, 109.26660,   0,  12,   1, -5.00, 1014.90, 15.00, 0,  11, 255, 0.000
64013000, 5301503, 2016-11-29 03:00:00, 13.35760, 109.26660,   0,  12,   1, -5.00, 1015.50, 15.00, 0,  10, 255, 0.000
64013000, 5301503, 2016-11-29 04:00:00, 13.35760, 109.26660,   0,  11,   1, -5.00, 1014.80, 15.00, 1,   8, 255, 0.000
64013000, 5301503, 2016-11-29 05:00:00, 13.35760, 109.26660,   0,  10,   1, -5.00, 1014.10, 15.00, 0,   9, 255, 0.000
64013000, 5301503, 2016-11-29 06:00:00, 13.35760, 109.26660,   0,  11,   1, -5.00, 1012.80, 15.00, 1,   8, 255, 0.000
64013000, 5301503, 2016-11-29 07:00:00, 13.35760, 109.26660,   0,  11,   1, -5.00, 1011.60, 15.00, 0,  17, 255, 0.000
64013000, 5301503, 2016-11-29 08:00:00, 13.35780, 109.26660,   0,  11,   1, -5.00, 1011.50, 15.00, 0,  12, 255, 0.000
64013000, 5301503, 2016-11-29 09:00:00, 13.35760, 109.26660,   0,  10,   1, -5.00, 1011.80, 15.00, 0,   1, 255, 0.000
64013000, 5301503, 2016-11-29 10:00:00, 13.35760, 109.26660,   0,  12,   1, -5.00, 1012.60, 15.00, 0,  11, 255, 0.000
64013000, 5301503, 2016-11-29 11:00:00, 13.35760, 109.26660,   0,  11,   1, -5.00, 1012.30, 15.00, 0,  10, 255, 0.000
64013000, 5301503, 2016-11-29 12:00:00, 13.35760, 109.26660,   0,  11,   1, -5.00, 1013.80, 15.00, 0,  10, 255, 0.000
64013000, 5301503, 2016-11-29 13:00:00, 13.35760, 109.26660,   0,  11,   1, -5.00, 1013.70, 15.00, 1,   9, 255, 0.000
64013000, 5301503, 2016-11-29 14:00:00, 13.35760, 109.26660,   0,  12,   1, -5.00, 1014.40, 15.00, 0,   1, 255, 0.000
64013000, 5301503, 2016-11-29 15:00:00, 13.35760, 109.26660,   0,  11,   1, -5.00, 1014.30, 15.00, 0,  24, 255, 0.000
64013000, 5301503, 2016-11-29 16:00:00, 13.35760, 109.26660,   0,  11,   1, -5.00, 1014.10, 15.00, 1,   8, 255, 0.000
64013000, 5301503, 2016-11-29 17:00:00, 13.35760, 109.26660,   0,  12,   1, -5.00, 1013.70, 15.00, 0,   9, 255, 0.000
64013000, 5301503, 2016-11-29 18:00:00, 13.35760, 109.26660,   0,  11,   1, -5.00, 1013.10, 15.00, 1,  23, 255, 0.000
64013000, 5301503, 2016-11-29 19:00:00, 13.35760, 109.26660,   0,  11,   1, -5.00, 1012.60, 15.00, 1,  10, 255, 0.000
64013000, 5301503, 2016-11-29 20:00:00, 13.35760, 109.26660,   0,  11,   1, -5.00, 1011.60, 15.00, 0,   4, 255, 0.000
64013000, 5301503, 2016-11-29 21:00:00, 13.35760, 109.26660,   0,  11,   1, -5.00, 1011.60, 15.00, 0,  11, 255, 0.000
64013000, 5301503, 2016-11-29 22:00:00, 13.35760, 109.26660,   0,  11,   1, -5.00, 1011.70, 15.00, 1,   8, 255, 0.000
64013000, 5301503, 2016-11-29 23:00:00, 13.35780, 109.26660,   0,  12,   1, -5.00, 1012.30, 15.00, 1,   9, 255, 0.000
64013000, 5301503, 2016-11-30 00:00:00, 13.35760, 109.26660,   0,  10,   1, -5.00, 1013.00, 15.00, 1,  10, 255, 0.000
64013000, 5301503, 2016-11-30 01:00:00, 13.35760, 109.26660,   0,  11,   1, -5.00, 1013.90, 15.00, 1,  11, 255, 0.000
64013000, 5301503, 2016-11-30 02:00:00, 13.35760, 109.26660,   0,  12,   1, -5.00, 1014.50, 15.00, 0,   7, 255, 0.000
64013000, 5301503, 2016-11-30 03:00:00, 13.35760, 109.26660,   0,  11,   1, -5.00, 1015.20, 15.00, 1,   9, 255, 0.000
64013000, 5301503, 2016-11-30 04:00:00, 13.35760, 109.26660,   0,  10,   1, -5.00, 1014.60, 15.00, 1,   9, 255, 0.000
64013000, 5301503, 2016-11-30 05:00:00, 13.35760, 109.26660,   0,  11,   1, -5.00, 1014.20, 15.00, 1,  12, 255, 0.000
64013000, 5301503, 2016-11-30 06:00:00, 13.35760, 109.26660,   0,  11,   1, -5.00, 1013.60, 15.00, 1,  10, 255, 0.000
64013000, 5301503, 2016-11-30 07:00:00, 13.35760, 109.26660,   0,  11,   1, -5.00, 1012.70, 15.00, 0,   4, 255, 0.000
64013000, 5301503, 2016-11-30 08:00:00, 13.35760, 109.26660,   0,  11,   1, -5.00, 1012.70, 15.00, 1,   7, 255, 0.000
64013000, 5301503, 2016-11-30 09:00:00, 13.35760, 109.26660,   0,  10,   1, -5.00, 1012.50, 15.00, 0,   7, 255, 0.000
64013000, 5301503, 2016-11-30 10:00:00, 13.35760, 109.26660,   0,  11,   1, -5.00, 1013.10, 15.00, 1,   8, 255, 0.000
64013000, 5301503, 2016-11-30 11:00:00, 13.35760, 109.26660,   0,  11,   1, -5.00, 1013.60, 15.00, 0,   1, 255, 0.000
64013000, 5301503, 2016-11-30 12:00:00, 13.35760, 109.26660,   0,  11,   1, -5.00, 1014.00, 15.00, 0,   9, 255, 0.000
64013000, 5301503, 2016-11-30 13:00:00, 13.35760, 109.26660,   0,  11,   1, -5.00, 1014.40, 15.00, 0,   7, 255, 0.000
64013000, 5301503, 2016-11-30 14:00:00, 13.35760, 109.26660,   0,  12,   1, -5.00, 1015.20, 15.00, 1,   8, 255, 0.000
64013000, 5301503, 2016-11-30 15:00:00, 13.35760, 109.26660,   0,  11,   1, -5.00, 1015.10, 15.00, 0,  11, 255, 0.000
64013000, 5301503, 2016-11-30 16:00:00, 13.35780, 109.26660,   0,  11,   1, -5.00, 1014.80, 15.00, 0,  17, 255, 0.000
64013000, 5301503, 2016-11-30 17:00:00, 13.35760, 109.26660,   0,  12,   2, -5.00, 1014.30, 15.00, 0,   8, 255, 0.000
64013000, 5301503, 2016-11-30 18:00:00, 13.35760, 109.26660,   0,  11,   1, -5.00, 1013.40, 15.00, 0,  18, 255, 0.000
64013000, 5301503, 2016-11-30 19:00:00, 13.35760, 109.26660,   0,  11,   1, -5.00, 1012.90, 15.00, 0,   8, 255, 0.000
64013000, 5301503, 2016-11-30 20:00:00, 13.35760, 109.26660,   0,  11,   1, -5.00, 1012.80, 15.00, 0,  10, 255, 0.000
64013000, 5301503, 2016-11-30 21:00:00, 13.35760, 109.26660,   0,  11,   1, -5.00, 1012.80, 15.00, 0,  10, 255, 0.000
64013000, 5301503, 2016-11-30 22:00:00, 13.35760, 109.26660,   0,  11,   1, -5.00, 1013.10, 15.00, 1,   1, 255, 0.000
64013000, 5301503, 2016-11-30 23:00:00, 13.35780, 109.26660,   0,  12,   1, -5.00, 1013.30, 15.00, 1,   9, 255, 0.000
64013000, 5301503, 2016-12-01 00:00:00, 13.35760, 109.26660,   0,  10,   1, -5.00, 1014.40, 15.00, 1,   8, 255, 0.000
64013000, 5301503, 2016-12-01 01:00:00, 13.35760, 109.26660,   0,  11,   1, -5.00, 1015.10, 15.00, 0,  11, 255, 0.000
64013000, 5301503, 2016-12-01 02:00:00, 13.35760, 109.26660,   0,  12,   1, -5.00, 1015.20, 15.00, 1,  14, 255, 0.000
64013000, 5301503, 2016-12-01 03:00:00, 13.35760, 109.26660,   0,  11,   1, -5.00, 1015.60, 15.00, 0,  11, 255, 0.000
64013000, 5301503, 2016-12-01 04:00:00, 13.35760, 109.26660,   0,  10,   1, -5.00, 1014.90, 15.00, 0,   9, 255, 0.000
64013000, 5301503, 2016-12-01 05:00:00, 13.35760, 109.26660,   0,  11,   1, -5.00, 1014.20, 15.00, 0,  10, 255, 0.000
64013000, 5301503, 2016-12-01 06:00:00, 13.35760, 109.26660,   0,  11,   1, -5.00, 1013.60, 15.00, 0,  15, 255, 0.000
64013000, 5301503, 2016-12-01 07:00:00, 13.35760, 109.26660,   0,  12,   1, -5.00, 1012.90, 15.00, 0,   7, 255, 0.000
64013000, 5301503, 2016-12-01 08:00:00, 13.35760, 109.26660,   0,  11,   1, -5.00, 1013.00, 15.00, 1,  10, 255, 0.000
64013000, 5301503, 2016-12-01 09:00:00, 13.35760, 109.26660,   0,  11,   1, -5.00, 1013.20, 15.00, 0,  10, 255, 0.000
64013000, 5301503, 2016-12-01 10:00:00, 13.35760, 109.26660,   0,  11,   1, -5.00, 1013.40, 15.00, 1,   8, 255, 0.000
64013000, 5301503, 2016-12-01 11:00:00, 13.35760, 109.26660,   0,  11,   1, -5.00, 1014.00, 15.00, 0,  10, 255, 0.000
64013000, 5301503, 2016-12-01 12:00:00, 13.35760, 109.26660,   0,  10,   1, -5.00, 1014.60, 15.00, 1,   8, 255, 0.000
64013000, 5301503, 2016-12-01 13:00:00, 13.35760, 109.26660,   0,  11,   1, -5.00, 1014.50, 15.00, 1,  10, 255, 0.000
64013000, 5301503, 2016-12-01 14:00:00, 13.35760, 109.26660,   0,  12,   1, -5.00, 1014.90, 15.00, 1,   1, 255, 0.000
64013000, 5301503, 2016-12-01 15:00:00, 13.35760, 109.26660,   0,  11,   1, -5.00, 1015.10, 15.00, 0,  10, 255, 0.000
64013000, 5301503, 2016-12-01 16:00:00, 13.35760, 109.26660,   0,  10,   1, -5.00, 1015.00, 15.00, 1,   8, 255, 0.000
64013000, 5301503, 2016-12-01 17:00:00, 13.35760, 109.26660,   0,  12,   2, -5.00, 1014.50, 15.00, 0,   9, 255, 0.000
64013000, 5301503, 2016-12-01 18:00:00, 13.35760, 109.26660,   0,  11,   1, -5.00, 1014.00, 15.00, 0,   8, 255, 0.000
64013000, 5301503, 2016-12-01 19:00:00, 13.35760, 109.26660,   0,  11,   1, -5.00, 1013.30, 15.00, 0,   4, 255, 0.000
64013000, 5301503, 2016-12-01 20:00:00, 13.35760, 109.26660,   0,  11,   1, -5.00, 1013.00, 15.00, 0,   7, 255, 0.000
64013000, 5301503, 2016-12-01 21:00:00, 13.35760, 109.26660,   0,  11,   1, -5.00, 1013.10, 15.00, 1,   8, 255, 0.000
64013000, 5301503, 2016-12-01 22:00:00, 13.35760, 109.26660,   0,  11,   1, -5.00, 1013.40, 15.00, 1,   9, 255, 0.000
64013000, 5301503, 2016-12-01 23:00:00, 13.35780, 109.26660,   0,  12,   2, -5.00, 1013.80, 15.00, 1,   8, 255, 0.000
64013000, 5301503, 2016-12-02 00:00:00, 13.35760, 109.26660,   0,  10,   1, -5.00, 1014.30, 15.00, 0,   8, 255, 0.000
64013000, 5301503, 2016-12-02 01:00:00, 13.35760, 109.26660,   0,  10,   1, -5.00, 1014.90, 15.00, 0,  11, 255, 0.000
64013000, 5301503, 2016-12-02 02:00:00, 13.35760, 109.26660,   0,  12,   1, -5.00, 1015.40, 15.00, 1,   7, 255, 0.000
64013000, 5301503, 2016-12-02 03:00:00, 13.35760, 109.26660,   0,  11,   1, -5.00, 1015.20, 15.00, 0,   8, 255, 0.000
64013000, 5301503, 2016-12-02 04:00:00, 13.35760, 109.26660,   0,  10,   1, -5.00, 1014.90, 15.00, 0,  18, 255, 0.000
64013000, 5301503, 2016-12-02 05:00:00, 13.35760, 109.26660,   0,  11,   1, -5.00, 1014.00, 15.00, 0,  10, 255, 0.000
64013000, 5301503, 2016-12-02 06:00:00, 13.35760, 109.26660,   0,  11,   1, -5.00, 1012.80, 15.00, 1,   8, 255, 0.000
64013000, 5301503, 2016-12-02 07:00:00, 13.35760, 109.26660,   0,  11,   1, -5.00, 1012.30, 15.00, 1,   9, 255, 0.000
64015370, 5301502, 2016-12-01 20:59:00, 12.07300, 109.51100,   0,  11,   3, 27.28, 1013.50, 16.40, 0,   9, 255, 0.000
64015370, 5301502, 2016-12-01 22:00:00, 12.00220, 109.48980,   0,  11,   1, 25.90, 1010.80, 14.00, 0,   9, 255, 0.000
64015370, 5301502, 2016-12-01 23:00:00, 11.93460, 109.46580,   0,  10,   2, 25.91, 1011.50, 14.00, 0,  10, 255, 0.000
64015370, 5301502, 2016-12-02 00:00:00, 11.86820, 109.44040,   0,  10,   2, 26.27, 1012.10, 14.00, 0,  11, 255, 0.000
64015370, 5301502, 2016-12-02 01:00:00, 11.80460, 109.41660,   0,  11,   1, 26.16, 1012.60, 14.00, 0,   9, 255, 0.000
64015370, 5301502, 2016-12-02 02:00:00, 11.74080, 109.39280,   0,  11,   1, 26.52, 1013.30, 14.00, 1,   8, 255, 0.000
64015370, 5301502, 2016-12-02 03:00:00, 11.67780, 109.36880,   0,  12,   1, 26.54, 1012.90, 14.00, 0,   8, 255, 0.000
64015370, 5301502, 2016-12-02 04:00:00, 11.61320, 109.34380,   0,  12,   1, 26.57, 1012.00, 14.00, 0,   8, 255, 0.000
64015370, 5301502, 2016-12-02 05:00:00, 11.55000, 109.31300,   0,  11,   1, 26.57, 1011.60, 14.00, 0,  14, 255, 0.000
64015370, 5301502, 2016-12-02 06:00:00, 11.48720, 109.27680,   0,  11,   1, 26.57, 1010.80, 14.00, 0,  10, 255, 0.000
64015370, 5301502, 2016-12-02 07:00:00, 11.42600, 109.23940,   0,  10,   1, 26.57, 1010.00, 14.00, 0,  15, 255, 0.000
